Location: Hiram
(41.3130°N, 81.1440°W)
Time: 13:48:25
(UTC-04:00)

Iridium 62 - Visible Passes

Search period start: 06 July 2015 00:00
Search period end: 16 July 2015 00:00
Orbit: 776 x 779 km, 86.4° (Epoch: 06 July)

Date Brightness Start Highest point End Pass type
(mag) Time Alt. Az. Time Alt. Az. Time Alt. Az.
06 Jul 8.4 03:40:28 10° NNE 03:43:48 17° ENE 03:47:18 10° ESE visible
06 Jul 6.0 05:19:54 10° NNW 05:24:59 54° W 05:30:02 10° SSW visible
07 Jul 5.9 04:46:15 10° N 04:51:31 82° E 04:56:43 10° S visible
08 Jul 6.9 04:12:54 10° N 04:17:54 44° E 04:22:52 10° SSE visible
09 Jul 7.9 03:39:55 10° NNE 03:44:07 25° ENE 03:48:25 10° SE visible
09 Jul 6.5 05:20:12 10° NNW 05:25:00 37° W 05:29:45 10° SSW visible
10 Jul 8.4 03:07:43 10° NE 03:10:11 14° ENE 03:12:55 10° ESE visible
10 Jul 5.8 04:46:23 10° N 04:51:36 70° W 04:56:45 10° S visible
11 Jul 6.2 04:12:52 10° N 04:18:03 65° E 04:23:14 10° SSE visible
12 Jul 7.2 03:39:39 10° NNE 03:44:23 35° E 03:49:09 10° SSE visible
12 Jul 6.9 05:20:40 10° NNW 05:25:00 26° W 05:29:13 10° SW visible
13 Jul 8.1 03:06:52 10° NNE 03:10:33 20° ENE 03:14:23 10° ESE visible
13 Jul 6.2 04:46:37 10° NNW 04:51:37 48° W 04:56:27 11° SSW visible
14 Jul 8.6 02:35:40 10° ENE 02:36:32 11° ENE 02:37:45 10° E visible
14 Jul 5.8 04:12:55 10° N 04:18:10 88° W 04:22:32 15° S visible
15 Jul 6.5 03:39:30 10° N 03:44:35 50° E 03:48:39 16° SSE visible
15 Jul 7.4 05:21:21 10° NW 05:24:57 19° W 05:28:22 10° WSW visible
